Lid_Strength_Index
3 2 2 2 2 1 1 1 1 1 1 1 1 1 1 1 1 0 -0 -0 -0 -0 0 0 0 0 1 1 1 1 1 1 1 2 2 1 2 2 1 1 0 1 0
4 3 3 2 2 2 2 1 1 1 1 1 1 1 2 1 0 -0 -0 -0 -0 -0 -0 0 0 0 1 1 1 1 2 1 1 3 3 5 3 2 1 2 1 1 1
5 4 3 3 2 2 2 2 1 1 1 1 1 1 1 1 1 1 0 0 -0 -0 0 0 0 1 0 1 1 1 2 3 2 1 3 5 6 4 2 2 1 2 1
4 4 3 3 3 2 1 1 1 1 1 1 1 2 2 3 2 1 0 0 -0 0 0 0 0 0 1 1 1 0 1 1 3 2 1 2 2 5 5 2 1 1 1
4 4 3 3 2 2 2 1 1 1 1 1 1 1 3 3 2 1 1 1 0 0 -0 0 0 0 1 0 1 1 1 1 2 2 2 3 2 2 4 5 3 2 1
4 4 3 2 2 2 2 1 1 1 1 1 1 1 3 3 2 2 2 1 1 0 0 0 0 0 0 0 1 0 1 1 1 1 2 2 3 3 4 4 4 3 2
4 4 4 3 3 2 2 2 2 2 1 1 1 1 2 2 1 1 1 2 1 1 1 0 0 0 0 0 1 1 1 1 1 1 1 1 3 2 2 3 4 4 2
5 5 4 3 3 2 2 2 2 2 1 1 1 1 1 2 3 1 1 2 1 1 1 0 0 0 0 0 0 1 1 1 1 1 1 1 1 2 1 3 3 5 4
5 5 4 3 3 3 2 2 2 2 1 1 1 1 1 1 1 1 1 2 0 0 0 0 0 0 0 0 0 1 1 1 1 1 1 1 1 1 1 2 2 3 6
5 5 4 3 3 2 2 2 2 3 2 1 1 1 1 1 1 1 1 1 0 1 0 1 1 0 0 0 1 1 1 1 1 1 1 1 1 1 1 1 1 2 3
5 5 4 3 3 2 3 3 3 4 4 4 2 1 1 1 1 1 1 1 1 1 1 2 3 2 1 0 1 1 1 1 1 1 1 1 1 1 1 1 1 2 2
5 4 4 4 4 3 3 3 2 3 3 3 2 1 1 1 1 1 1 0 1 1 2 2 3 2 1 0 1 1 1 1 1 1 1 1 1 1 1 1 2 2 2
5 4 5 5 4 4 2 2 2 2 1 1 2 1 1 1 1 1 1 0 0 1 2 2 1 1 1 1 0 1 1 1 1 1 1 1 1 2 1 1 1 1 1
5 5 5 5 5 4 4 3 3 1 1 1 2 2 3 2 1 1 1 1 0 1 1 0 1 1 1 0 0 1 1 1 1 1 1 1 1 1 1 1 1 1 2
5 5 5 4 5 5 5 5 4 3 2 3 3 2 2 2 2 1 1 1 1 1 0 1 1 0 0 0 1 1 1 1 1 1 0 0 0 1 1 1 1 1 2
6 5 6 5 4 5 4 4 4 4 4 4 4 3 2 2 2 2 3 1 1 1 1 1 1 1 0 3 4 1 1 1 1 1 1 0 1 1 3 3 2 1 2
6 5 6 7 7 6 4 4 4 4 4 4 4 3 3 3 3 2 2 3 3 1 1 1 1 1 1 3 5 4 1 1 1 1 1 1 0 1 0 3 5 4 3
6 7 6 7 7 7 6 6 4 3 4 4 3 4 4 4 3 3 3 3 2 2 2 1 1 1 1 4 5 5 4 2 1 1 1 1 1 1 1 1 1 2 2
7 7 6 6 7 7 7 6 6 5 5 5 5 5 4 3 4 5 4 3 3 3 3 2 3 2 1 4 6 5 3 2 2 1 1 1 1 2 3 1 2 1 1
7 7 6 6 7 7 6 6 5 5 5 4 4 3 3 3 4 4 4 4 3 3 3 2 2 3 2 4 6 6 2 1 2 1 1 4 3 5 5 1 1 2 2
7 6 6 6 6 5 5 5 5 5 4 3 3 2 2 2 3 3 1 2 3 4 4 3 2 2 2 2 4 7 3 1 2 2 1 1 7 9 10 9 3 2 2
6 6 6 6 5 5 5 5 5 4 3 3 3 3 3 2 2 2 2 1 1 2 3 4 3 1 1 3 5 8 9 7 3 2 1 2 10 11 10 8 8 8 7
7 6 6 6 5 5 5 5 5 5 5 5 5 4 3 3 2 2 3 3 2 2 2 3 5 5 5 5 6 8 7 7 5 3 5 8 10 10 7 9 8 8 6
6 5 5 6 6 5 5 5 5 4 5 5 5 5 5 5 5 4 3 3 3 2 2 3 4 3 3 4 2 3 4 5 4 5 6 6 7 8 7 6 3 2 2
5 5 6 6 6 6 6 5 5 5 5 5 5 5 5 5 5 5 4 4 4 3 3 2 2 3 3 3 3 5 5 6 6 7 5 5 5 5 3 2 1 1 1
5 5 5 6 6 6 6 6 6 6 6 6 5 5 4 4 4 5 5 5 6 7 8 8 7 3 4 6 7 9 10 10 11 7 6 5 5 4 3 2 2 1 2